TimeCST,TemperatureF,Dew PointF,Humidity,Sea Level PressureIn,VisibilityMPH,Wind Direction,Wind SpeedMPH,Gust SpeedMPH,PrecipitationIn,Events,Conditions,WindDirDegrees,DateUTC
12:15 AM,24.4,21.6,89,30.39,10.0,SW,5.8,-,N/A,,Clear,220,2013-01-06 06:15:00
12:35 AM,25.3,21.0,84,30.39,10.0,SW,8.1,-,N/A,,Clear,220,2013-01-06 06:35:00
12:55 AM,24.3,20.3,85,30.38,10.0,SSW,5.8,-,N/A,,Clear,200,2013-01-06 06:55:00
1:15 AM,23.4,20.3,88,30.38,10.0,South,5.8,-,N/A,,Clear,190,2013-01-06 07:15:00
1:35 AM,23.2,20.7,90,30.38,10.0,South,6.9,-,N/A,,Clear,180,2013-01-06 07:35:00
1:55 AM,23.5,21.0,90,30.38,10.0,South,4.6,-,N/A,,Clear,170,2013-01-06 07:55:00
2:15 AM,22.8,20.3,90,30.38,10.0,SSE,6.9,-,N/A,,Clear,160,2013-01-06 08:15:00
2:35 AM,22.6,19.9,89,30.38,10.0,SSE,8.1,-,N/A,,Clear,160,2013-01-06 08:35:00
2:55 AM,23.2,19.8,87,30.39,10.0,South,5.8,-,N/A,,Clear,170,2013-01-06 08:55:00
3:15 AM,22.1,18.9,87,30.39,10.0,South,4.6,-,N/A,,Clear,180,2013-01-06 09:15:00
3:35 AM,20.7,17.8,89,30.39,10.0,SSW,4.6,-,N/A,,Clear,210,2013-01-06 09:35:00
3:55 AM,20.5,17.6,89,30.39,10.0,South,3.5,-,N/A,,Clear,190,2013-01-06 09:55:00
4:15 AM,19.6,16.5,88,30.39,10.0,South,4.6,-,N/A,,Clear,190,2013-01-06 10:15:00
4:35 AM,18.5,15.6,89,30.39,10.0,SW,5.8,-,N/A,,Clear,220,2013-01-06 10:35:00
4:55 AM,18.7,15.6,88,30.39,10.0,SW,4.6,-,N/A,,Clear,220,2013-01-06 10:55:00
5:15 AM,19.8,16.3,87,30.39,10.0,Calm,Calm,-,N/A,,Clear,0,2013-01-06 11:15:00
5:35 AM,20.7,16.3,83,30.39,10.0,South,3.5,-,N/A,,Clear,180,2013-01-06 11:35:00
5:55 AM,20.1,14.9,80,30.40,10.0,Calm,Calm,-,N/A,,Clear,0,2013-01-06 11:55:00
6:15 AM,17.1,13.8,87,30.40,10.0,SSE,5.8,-,N/A,,Clear,150,2013-01-06 12:15:00
6:35 AM,20.1,16.2,85,30.41,10.0,SSE,6.9,-,N/A,,Clear,150,2013-01-06 12:35:00
6:55 AM,20.8,16.7,84,30.42,10.0,SSW,6.9,-,N/A,,Clear,200,2013-01-06 12:55:00
7:15 AM,19.6,15.8,85,30.43,10.0,South,3.5,-,N/A,,Clear,190,2013-01-06 13:15:00
7:35 AM,19.4,15.8,86,30.43,10.0,SW,4.6,-,N/A,,Clear,220,2013-01-06 13:35:00
7:55 AM,20.1,16.2,85,30.44,10.0,SW,5.8,-,N/A,,Clear,220,2013-01-06 13:55:00
8:15 AM,21.7,17.2,83,30.45,10.0,SW,5.8,-,N/A,,Clear,220,2013-01-06 14:15:00
8:35 AM,23.2,18.1,81,30.45,10.0,SW,6.9,-,N/A,,Clear,220,2013-01-06 14:35:00
8:55 AM,25.9,20.1,79,30.46,10.0,SSW,4.6,-,N/A,,Clear,200,2013-01-06 14:55:00
9:15 AM,28.8,22.6,78,30.46,10.0,SW,4.6,-,N/A,,Clear,220,2013-01-06 15:15:00
9:35 AM,31.5,24.4,75,30.46,10.0,Calm,Calm,-,N/A,,Clear,0,2013-01-06 15:35:00
9:55 AM,33.8,23.7,67,30.47,10.0,Calm,Calm,-,N/A,,Clear,0,2013-01-06 15:55:00
10:15 AM,35.6,22.8,60,30.47,10.0,Calm,Calm,-,N/A,,Clear,0,2013-01-06 16:15:00
10:35 AM,36.5,23.7,60,30.46,10.0,Calm,Calm,-,N/A,,Clear,0,2013-01-06 16:35:00
10:55 AM,37.2,24.4,60,30.46,10.0,Calm,Calm,-,N/A,,Clear,0,2013-01-06 16:55:00
11:35 AM,39.7,26.1,58,30.45,10.0,Calm,Calm,-,N/A,,Clear,0,2013-01-06 17:35:00
11:55 AM,39.9,25.7,57,30.44,10.0,Calm,Calm,-,N/A,,Clear,0,2013-01-06 17:55:00
12:15 PM,40.6,25.9,56,30.43,10.0,Calm,Calm,-,N/A,,Clear,0,2013-01-06 18:15:00
12:35 PM,41.7,26.4,55,30.42,10.0,Calm,Calm,-,N/A,,Clear,0,2013-01-06 18:35:00
12:55 PM,42.3,26.4,54,30.40,10.0,Calm,Calm,-,N/A,,Clear,0,2013-01-06 18:55:00
1:15 PM,43.2,26.4,52,30.39,10.0,NNW,3.5,-,N/A,,Clear,340,2013-01-06 19:15:00
1:35 PM,44.1,26.4,50,30.38,10.0,NW,4.6,-,N/A,,Clear,310,2013-01-06 19:35:00
1:55 PM,45.0,26.8,49,30.36,10.0,NNW,3.5,-,N/A,,Clear,340,2013-01-06 19:55:00
2:15 PM,45.7,26.2,47,30.35,10.0,NNW,3.5,-,N/A,,Clear,330,2013-01-06 20:15:00
2:35 PM,46.2,26.4,46,30.34,10.0,Calm,Calm,-,N/A,,Clear,0,2013-01-06 20:35:00
2:55 PM,47.1,26.2,44,30.34,10.0,Calm,Calm,-,N/A,,Clear,0,2013-01-06 20:55:00
3:15 PM,47.7,26.2,43,30.33,10.0,Calm,Calm,-,N/A,,Clear,0,2013-01-06 21:15:00
3:35 PM,47.8,26.8,44,30.32,10.0,North,4.6,-,N/A,,Clear,10,2013-01-06 21:35:00
3:55 PM,47.7,26.8,44,30.32,10.0,NNE,3.5,-,N/A,,Clear,20,2013-01-06 21:55:00
4:15 PM,48.2,27.0,44,30.32,10.0,NE,4.6,-,N/A,,Clear,40,2013-01-06 22:15:00
4:35 PM,47.7,28.6,48,30.32,10.0,NE,6.9,-,N/A,,Clear,50,2013-01-06 22:35:00
4:55 PM,46.4,30.0,53,30.32,10.0,NNE,6.9,-,N/A,,Clear,30,2013-01-06 22:55:00
5:15 PM,45.0,30.6,57,30.32,10.0,NNE,4.6,-,N/A,,Clear,30,2013-01-06 23:15:00
5:35 PM,43.9,30.9,60,30.32,10.0,NE,4.6,-,N/A,,Clear,40,2013-01-06 23:35:00
5:55 PM,41.9,30.6,64,30.32,10.0,NE,4.6,-,N/A,,Clear,40,2013-01-06 23:55:00
6:15 PM,40.1,30.7,69,30.32,10.0,Calm,Calm,-,N/A,,Clear,0,2013-01-07 00:15:00
6:35 PM,38.8,30.4,72,30.32,10.0,Calm,Calm,-,N/A,,Clear,0,2013-01-07 00:35:00
6:55 PM,38.1,29.8,72,30.32,10.0,Calm,Calm,-,N/A,,Clear,0,2013-01-07 00:55:00
7:15 PM,37.6,29.7,73,30.31,10.0,Calm,Calm,-,N/A,,Clear,0,2013-01-07 01:15:00
7:35 PM,36.3,29.5,76,30.31,10.0,Calm,Calm,-,N/A,,Clear,0,2013-01-07 01:35:00
7:55 PM,35.4,28.9,77,30.32,10.0,Calm,Calm,-,N/A,,Clear,0,2013-01-07 01:55:00
8:15 PM,34.5,28.6,79,30.32,10.0,Calm,Calm,-,N/A,,Clear,0,2013-01-07 02:15:00
8:35 PM,35.1,28.2,76,30.32,10.0,Calm,Calm,-,N/A,,Clear,0,2013-01-07 02:35:00
8:55 PM,30.7,26.1,83,30.32,10.0,Calm,Calm,-,N/A,,Clear,0,2013-01-07 02:55:00
9:15 PM,29.3,25.9,87,30.32,10.0,SW,4.6,-,N/A,,Clear,220,2013-01-07 03:15:00
9:35 PM,28.8,25.9,89,30.31,10.0,SW,4.6,-,N/A,,Clear,230,2013-01-07 03:35:00
10:35 PM,29.1,26.6,90,30.30,10.0,Calm,Calm,-,N/A,,Clear,0,2013-01-07 04:35:00
10:55 PM,31.1,27.7,87,30.28,10.0,Calm,Calm,-,N/A,,Clear,0,2013-01-07 04:55:00
11:35 PM,31.8,25.7,78,30.27,10.0,South,4.6,-,N/A,,Clear,190,2013-01-07 05:35:00
11:55 PM,35.6,24.1,63,30.27,10.0,SE,4.6,-,N/A,,Clear,130,2013-01-07 05:55:00